Total_Precipitation_Accumulation
2.19 2.39 2.40 2.48 2.43 2.57 2.50 2.31 2.07 1.95 1.81 1.55 1.43 1.45 1.43 1.41 1.45 1.55 1.74 1.80 1.81 2.04 2.37 2.57 2.48 2.33 2.32 2.32 2.35 2.36 2.34 2.26 2.16 1.96 1.77 1.61 1.54 1.56 1.59 1.65 1.60 1.54 1.51
2.61 2.69 2.75 2.83 2.67 2.67 2.71 2.61 2.32 2.19 2.04 1.81 1.57 1.48 1.47 1.64 1.65 1.59 1.79 1.93 1.86 1.88 2.18 2.59 2.79 2.89 2.97 2.99 2.82 2.55 2.48 2.43 2.44 2.31 2.10 1.86 1.72 1.66 1.64 1.72 1.75 1.66 1.63
2.96 2.96 3.14 3.21 3.06 2.98 2.94 2.87 2.73 2.48 2.32 2.20 2.05 1.87 1.74 1.74 1.85 1.94 1.98 2.10 2.16 2.12 2.25 2.50 2.77 2.96 3.10 3.27 3.17 2.93 2.73 2.63 2.64 2.60 2.46 2.26 2.04 1.89 1.84 1.82 1.83 1.79 1.67
3.40 3.54 3.46 3.31 3.23 3.15 3.15 3.27 3.07 2.75 2.64 2.67 2.54 2.20 1.90 1.94 2.02 2.08 2.08 2.18 2.36 2.30 2.35 2.34 2.46 2.68 2.91 3.14 3.27 3.31 3.20 3.11 2.98 2.86 2.73 2.63 2.51 2.33 2.16 2.11 2.02 1.92 1.82
3.75 3.88 3.81 3.62 3.44 3.36 3.38 3.16 3.15 3.04 3.03 2.94 2.56 2.32 2.03 1.96 2.03 2.01 2.05 2.13 2.32 2.43 2.48 2.29 2.37 2.64 2.83 3.06 3.30 3.50 3.61 3.59 3.41 3.28 3.14 3.02 2.92 2.73 2.51 2.35 2.23 2.15 2.07
4.18 4.18 4.04 3.91 3.79 3.65 3.55 3.42 3.38 3.31 3.13 2.99 2.56 2.33 2.14 1.96 1.95 2.00 2.00 2.07 2.12 2.14 2.24 2.27 2.33 2.27 2.48 2.78 3.06 3.37 3.66 3.90 3.76 3.51 3.35 3.30 3.20 3.02 2.87 2.71 2.54 2.43 2.36
4.64 4.59 4.48 4.36 4.13 3.87 3.70 3.55 3.40 3.24 2.99 2.89 2.75 2.48 2.12 1.88 1.91 1.90 1.84 1.92 1.98 1.94 1.98 2.06 2.24 2.20 2.12 2.38 2.51 2.90 3.32 3.79 3.95 3.80 3.66 3.61 3.53 3.35 3.14 2.94 2.81 2.73 2.61
5.23 5.08 5.00 4.75 4.40 4.14 3.83 3.59 3.41 3.14 2.89 2.84 2.84 2.89 2.50 2.15 1.77 1.54 1.57 1.61 1.64 1.65 1.72 1.82 1.89 1.95 1.91 2.03 2.05 2.29 2.63 2.99 3.39 3.60 3.62 3.60 3.57 3.49 3.34 3.17 2.99 2.93 2.98
5.32 5.02 4.79 4.66 4.36 3.95 3.69 3.53 3.35 3.14 2.90 2.80 2.74 2.90 2.74 2.38 1.97 1.71 1.52 1.42 1.47 1.56 1.60 1.70 1.72 1.68 1.63 1.68 1.75 1.90 2.04 2.16 2.55 2.97 3.26 3.29 3.25 3.21 3.20 3.25 3.23 3.11 3.05
4.94 4.67 4.43 4.15 3.88 3.54 3.30 3.11 3.04 3.00 2.89 2.70 2.64 2.47 2.30 2.18 2.17 1.93 1.70 1.58 1.55 1.57 1.51 1.44 1.47 1.52 1.53 1.55 1.62 1.68 1.75 1.84 2.07 2.31 2.58 2.76 2.81 2.83 2.82 2.82 2.90 2.94 3.00
4.25 3.91 3.66 3.42 3.19 2.91 2.70 2.50 2.47 2.58 2.62 2.54 2.51 2.46 2.35 2.26 2.17 2.03 1.86 1.81 1.78 1.67 1.54 1.45 1.43 1.42 1.40 1.43 1.47 1.55 1.64 1.63 1.71 1.83 2.01 2.17 2.30 2.45 2.57 2.60 2.63 2.75 2.92
3.52 3.19 2.92 2.69 2.44 2.22 2.07 1.99 1.94 1.99 2.13 2.20 2.25 2.26 2.25 2.33 2.31 2.27 2.11 2.00 1.95 1.82 1.68 1.57 1.49 1.46 1.41 1.43 1.49 1.69 1.56 1.58 1.64 1.63 1.65 1.75 1.86 1.99 2.18 2.38 2.54 2.73 2.95
2.64 2.39 2.15 1.93 1.73 1.65 1.62 1.64 1.66 1.70 1.75 1.82 1.93 2.02 2.07 2.10 2.12 2.26 2.36 2.23 2.06 1.83 1.69 1.59 1.50 1.48 1.46 1.46 1.47 1.53 1.39 1.34 1.38 1.40 1.44 1.52 1.62 1.73 1.84 1.97 2.12 2.29 2.48
1.73 1.60 1.51 1.36 1.28 1.27 1.23 1.31 1.39 1.46 1.50 1.52 1.54 1.72 1.85 1.82 1.76 1.86 2.09 2.15 2.10 1.91 1.67 1.56 1.44 1.40 1.38 1.34 1.41 1.39 1.27 1.30 1.23 1.18 1.15 1.16 1.22 1.34 1.45 1.54 1.67 1.79 1.90
1.37 1.23 1.20 1.15 1.11 1.12 1.12 1.15 1.15 1.14 1.24 1.34 1.35 1.43 1.54 1.54 1.48 1.49 1.62 1.78 1.92 1.91 1.66 1.44 1.39 1.32 1.26 1.23 1.33 1.12 1.14 1.21 1.13 1.06 1.01 0.97 1.00 1.03 1.11 1.14 1.20 1.31 1.44
1.19 1.08 0.98 0.94 0.89 0.87 0.95 1.06 1.06 1.02 1.05 1.08 1.12 1.18 1.24 1.23 1.27 1.27 1.33 1.43 1.61 1.76 1.69 1.34 1.20 1.18 1.20 1.09 1.16 1.01 1.04 1.06 0.96 0.90 0.84 0.83 0.81 0.83 0.85 0.89 0.91 0.98 1.13
0.96 0.89 0.81 0.75 0.73 0.73 0.79 0.90 0.96 0.95 0.97 0.96 0.93 0.93 0.95 0.99 1.09 1.08 1.11 1.16 1.31 1.50 1.58 1.36 1.18 1.14 1.18 1.20 1.19 1.14 0.98 0.86 0.81 0.81 0.75 0.75 0.73 0.73 0.75 0.75 0.76 0.79 0.87
0.80 0.77 0.73 0.70 0.65 0.67 0.76 0.79 0.80 0.80 0.85 0.84 0.82 0.80 0.79 0.86 0.96 0.99 1.03 1.05 1.14 1.29 1.40 1.40 1.25 1.15 1.14 1.17 1.19 1.18 0.95 0.74 0.70 0.76 0.73 0.67 0.68 0.67 0.70 0.72 0.72 0.71 0.68
0.72 0.69 0.68 0.68 0.68 0.66 0.70 0.69 0.66 0.68 0.74 0.78 0.76 0.73 0.74 0.80 0.84 0.88 0.94 0.98 1.04 1.06 1.20 1.23 1.12 1.06 1.03 1.04 1.17 1.18 1.09 1.00 0.69 0.64 0.67 0.62 0.64 0.61 0.58 0.58 0.59 0.62 0.58
0.67 0.65 0.64 0.63 0.62 0.58 0.61 0.63 0.59 0.64 0.72 0.70 0.65 0.65 0.69 0.68 0.69 0.77 0.81 0.93 1.02 1.10 1.16 1.16 1.07 0.98 1.00 1.06 1.29 1.35 1.25 1.09 0.87 0.61 0.63 0.61 0.60 0.60 0.59 0.59 0.54 0.54 0.57
0.66 0.65 0.61 0.60 0.57 0.53 0.54 0.56 0.52 0.50 0.61 0.63 0.63 0.64 0.62 0.58 0.58 0.63 0.66 0.77 0.93 1.10 1.17 1.22 1.15 1.04 1.02 1.18 1.27 1.23 1.20 1.07 0.91 0.72 0.73 0.68 0.71 0.88 1.08 1.12 0.90 0.67 0.61
0.68 0.67 0.68 0.65 0.59 0.52 0.57 0.55 0.46 0.49 0.57 0.62 0.65 0.66 0.61 0.54 0.51 0.52 0.52 0.59 0.74 0.92 1.10 1.23 1.19 1.12 1.06 1.17 1.27 1.22 1.28 1.28 1.16 0.87 0.91 0.84 0.86 1.24 1.63 1.81 1.40 0.85 0.70
0.68 0.70 0.69 0.69 0.65 0.59 0.60 0.55 0.51 0.52 0.60 0.70 0.74 0.73 0.63 0.53 0.59 0.61 0.59 0.56 0.60 0.68 0.92 1.19 1.31 1.21 1.15 1.24 1.37 1.36 1.38 1.39 1.29 1.06 1.13 1.13 1.09 1.37 1.42 1.51 1.43 1.01 0.88
0.72 0.79 0.79 0.73 0.72 0.67 0.64 0.59 0.55 0.55 0.57 0.65 0.70 0.69 0.74 0.74 0.66 0.62 0.57 0.62 0.71 0.78 0.83 0.92 1.13 1.15 1.04 1.07 1.24 1.31 1.33 1.31 1.24 1.19 1.26 1.35 1.24 1.32 1.23 1.49 1.65 1.46 1.25
0.77 0.81 0.80 0.77 0.77 0.72 0.63 0.58 0.60 0.62 0.58 0.58 0.56 0.56 0.64 0.70 0.64 0.59 0.62 0.72 0.80 0.86 0.73 0.82 0.91 1.03 1.08 1.01 1.00 1.10 1.32 1.48 1.49 1.30 1.23 1.34 1.35 1.38 1.47 1.72 1.72 1.67 1.56
0.76 0.75 0.77 0.79 0.76 0.71 0.57 0.50 0.54 0.56 0.56 0.54 0.57 0.60 0.59 0.55 0.55 0.55 0.64 0.80 0.91 0.88 0.91 1.06 1.23 1.34 1.31 1.21 1.05 1.14 1.40 1.59 1.64 1.55 1.27 1.36 1.50 1.60 1.86 1.95 1.82 1.63 1.57